CW8014 Weather Reports


time (UTC)temp
F
wind
direction
speed
knots
gust
knots
rain 1hr
in
rain 24hr
in
rain mn
in
humidity
%
barometer
mb
20260504020407 56 311 3.5 7.0 0.00 0.80 0.00 97 1010.9
20260504015407 56 317 3.5 7.0 0.00 0.80 0.00 97 1011.0
20260504013407 56 292 2.6 6.1 0.00 0.80 0.00 97 1010.8
20260504012407 57 310 0.9 2.6 0.00 0.80 0.00 97 1010.7
20260504011407 56 248 1.7 3.5 0.00 0.80 0.00 97 1010.8
20260504010407 56 258 1.7 2.6 0.00 0.80 0.00 97 1010.7
20260504005407 56 236 0.9 3.5 0.00 0.80 0.00 97 1010.6
20260504004407 56 236 0.9 2.6 0.00 0.80 0.00 97 1010.7
20260504003407 56 244 1.7 2.6 0.00 0.80 0.00 97 1010.6
20260504002407 56 228 0.9 1.7 0.00 0.80 0.00 97 1010.5
20260504001407 56 245 0.9 5.2 0.00 0.80 0.00 97 1010.6
20260504000408 56 277 1.7 4.3 0.00 0.80 0.00 97 1010.5
20260503235410 56 237 1.7 5.2 0.00 0.80 0.00 97 1010.5
20260503234407 56 230 0.0 1.7 0.00 0.80 0.00 97 1010.5
20260503231407 57 188 0.9 2.6 0.00 0.80 0.00 97 1010.4
20260503230407 57 209 0.9 2.6 0.00 0.80 0.00 96 1010.3
20260503225406 57 269 1.7 4.3 0.00 0.80 0.00 96 1010.4
20260503224407 57 184 0.9 4.3 0.00 0.80 0.00 96 1010.3
20260503223407 57 222 0.9 1.7 0.00 0.80 0.00 96 1010.3
20260503222407 57 227 0.9 3.5 0.00 0.80 0.00 96 1010.3
20260503221406 57 236 0.9 3.5 0.00 0.80 0.00 96 1010.2
20260503215410 57 232 1.7 3.5 0.00 0.80 0.80 96 1010.3
20260503214410 57 229 0.9 3.5 0.00 0.80 0.80 96 1010.3
20260503213410 57 192 0.9 3.5 0.00 0.80 0.80 96 1010.2
20260503212410 57 175 0.9 3.5 0.00 0.80 0.80 96 1010.2
20260503211413 58 173 1.7 4.3 0.00 0.80 0.80 96 1010.2
20260503210411 58 188 2.6 4.3 0.00 0.80 0.80 96 1010.1
20260503205413 58 180 2.6 5.2 0.00 0.80 0.80 96 1010.1
20260503203410 58 190 1.7 4.3 0.02 0.80 0.80 96 1010.2
20260503202410 58 201 1.7 6.1 0.02 0.80 0.80 96 1010.2
20260503201410 58 178 1.7 6.1 0.02 0.80 0.80 96 1010.2
20260503200410 58 242 1.7 5.2 0.02 0.80 0.80 96 1010.2
20260503195410 59 159 3.5 9.6 0.02 0.80 0.80 96 1010.1
20260503193410 59 207 0.9 3.5 0.00 0.78 0.78 96 1009.9
20260503191410 59 196 2.6 4.3 0.00 0.78 0.78 96 1009.7
20260503190410 59 168 2.6 5.2 0.00 0.78 0.78 96 1009.6
20260503185410 59 208 1.7 5.2 0.00 0.78 0.78 96 1009.6
20260503184410 59 173 1.7 7.8 0.00 0.78 0.78 96 1009.6
20260503183410 59 191 1.7 4.3 0.00 0.78 0.78 96 1009.4
20260503182410 59 180 2.6 6.1 0.00 0.78 0.78 96 1009.3
20260503180410 59 164 2.6 4.3 0.00 0.78 0.78 96 1009.2
20260503175413 59 192 2.6 7.0 0.00 0.78 0.78 96 1009.2
20260503174413 59 213 4.3 7.0 0.02 0.78 0.78 96 1009.1
20260503171410 60 167 1.7 4.3 0.05 0.78 0.78 96 1009.1
20260503170413 60 159 2.6 5.2 0.05 0.78 0.78 96 1009.1
20260503131403 74 184 2.6 6.1 0.00 0.00 0.00 63 1008.0
20260503130403 74 178 6.1 9.6 0.00 0.00 0.00 62 1008.0
20260503110405 74 160 6.1 11.3 0.00 0.00 0.00 61 1009.1
20260503090402 69 113 2.6 6.1 0.00 0.00 0.00 70 1010.2
20260503080407 65 157 3.5 6.1 0.00 0.00 0.00 81 1010.8
20260503072407 64 165 2.6 5.2 0.00 0.00 0.00 82 1010.7
20260503071407 63 160 4.3 9.6 0.00 0.00 0.00 83 1010.7
20260503070407 63 127 2.6 6.1 0.00 0.00 0.00 85 1010.8
20260503054407 58 325 0.0 0.0 0.00 0.00 0.00 94 1010.7
20260503052407 58 325 0.0 0.0 0.00 0.00 0.00 94 1010.9
20260503051407 58 325 0.0 0.9 0.00 0.00 0.00 94 1010.8
20260503050407 57 325 0.0 0.9 0.00 0.00 0.00 94 1010.8
20260503044407 57 325 0.0 0.0 0.00 0.00 0.00 94 1010.9
20260503043407 57 325 0.9 1.7 0.00 0.00 0.00 94 1010.9
20260503042407 57 320 0.9 2.6 0.00 0.00 0.00 93 1010.9
20260503041407 57 167 1.7 3.5 0.00 0.00 0.00 93 1010.9
20260503040407 57 168 0.0 1.7 0.00 0.00 0.00 93 1011.2
20260503035407 57 168 0.0 0.0 0.00 0.00 0.00 93 1011.2
20260503034407 58 169 0.0 0.9 0.00 0.00 0.00 93 1011.4
20260503033407 58 169 0.0 1.7 0.00 0.00 0.00 92 1011.4
20260503032407 58 169 0.0 1.7 0.00 0.00 0.00 92 1011.4
20260503031407 58 168 1.7 3.5 0.00 0.00 0.00 92 1011.4
20260503030407 57 157 1.7 2.6 0.00 0.00 0.00 93 1011.6
20260503025407 57 160 1.7 6.1 0.00 0.00 0.00 92 1011.7
20260503024407 56 165 1.7 4.3 0.00 0.00 0.00 92 1011.8
20260503023410 56 130 0.9 2.6 0.00 0.00 0.00 92 1011.8
20260503022407 56 117 0.9 2.6 0.00 0.00 0.00 91 1011.5